Location: Albany
(35.0000°S, 118.0000°E)
Time: 01:36:05
(UTC-04:00)

Transit 2A - Visible Passes

Search period start: 27 April 2015 00:00
Search period end: 07 May 2015 00:00
Orbit: 592 x 969 km, 66.7° (Epoch: 26 April)

Date Brightness Start Highest point End Pass type
(mag) Time Alt. Az. Time Alt. Az. Time Alt. Az.
27 Apr 6.8 06:39:57 10° NW 06:44:13 42° WSW 06:48:22 10° SSE visible
28 Apr 5.9 06:05:55 10° NW 06:10:24 68° WSW 06:14:45 10° SSE visible
29 Apr 8.6 07:19:37 10° WSW 07:20:22 10° SW 07:20:54 10° SW visible
30 Apr 8.2 06:43:33 10° W 06:46:19 16° SW 06:48:54 10° SSW visible
01 May 7.7 06:08:43 10° WNW 06:12:20 24° SW 06:15:50 10° S visible
